Find Starlink 34427

NORAD ID: 64498 Int'l Des: 2025-133 Owner: SPXS Country: US Constellation: starlink operational
LEOCIRCULAR

当前视图

正在加载3D地球...

About Starlink 34427

Starlink 34427 (NORAD 64498) is a starlink constellation satellite (v2 mini) launched Jun 23, 2025 by SPXS of US. It operates in LEO, CIRCULAR orbit with a mass of 575.00 kg.

关于 Starlink 34427

正在加载描述...

即将过境

Passes for default location (London). Set your location on the main map for personalized predictions.

高度历史

Loading altitude history...

两行轨道根数

1 64498U 25133AC 26194.66668980 .00024190 00000-0 72530-3 0 9992
2 64498 53.1588 251.2552 0001035 82.1874 201.8307 15.34376282 5832
Epoch: Jul 13, 2026 • Age: 13 hours

当前状态

高度 471.0 km
远地点 / 近地点 N/A
速度 7.63 km/s
星下点 -26.96°S, 135.87°W
发射日期 Jun 23, 2025
运行时间 1 year
类型 internet

技术详情

分类 Payload
质量 575.00 kg
干质量 530.00 kg
总质量 575.00 kg
长度 0.30 m
直径 4.10 m
跨度 29.00 m
形状 Box + pan
制造商 SPXS
平台类型 Starlink V2MO
阶段状态 In Orbit
所有者/国家 SPXS/US

Most Searched